When you browse on this site, cookies collect data to enhance your experience and personalize the content and advertising you see.
Visit our Privacy Policy to learn more. By continuing to use the site, you agree to this use of cookies and data.
  • In Hungary
  • List of Countries
  • For 7 days
  • Water Temperature
  • Satellite Maps
  • Weather Map
  • News
  • Weather Widgets
  • user-avatar
    Login

    Hourly Weather Paranavai

    Today, 21 November, Wednesday

    Time Temperature Precipitation Wind Pressure Humidity
    00:00 +22°C° 0 mm 5 mps 723 mmHg 73%
    01:00 +21°C° 0 mm 5 mps 723 mmHg 73%
    02:00 +20°C° 0 mm 5 mps 723 mmHg 73%
    03:00 +19°C° 0 mm 4 mps 723 mmHg 74%
    04:00 +19°C° 0 mm 4 mps 723 mmHg 75%
    05:00 +18°C° 0 mm 4 mps 723 mmHg 77%
    06:00 +17°C° 0 mm 3 mps 723 mmHg 78%
    07:00 +19°C° 0 mm 4 mps 723 mmHg 74%
    08:00 +21°C° 0 mm 4 mps 724 mmHg 70%
    09:00 +23°C° 0 mm 4 mps 724 mmHg 68%
    10:00 +26°C° 0 mm 4 mps 724 mmHg 63%
    11:00 +28°C° 0 mm 3 mps 724 mmHg 59%
    12:00 +29°C° 0 mm 3 mps 723 mmHg 54%
    13:00 +30°C° 0 mm 3 mps 723 mmHg 52%
    14:00 +31°C° 0 mm 2 mps 722 mmHg 49%
    15:00 +32°C° 0 mm 2 mps 722 mmHg 46%
    16:00 +31°C° 0 mm 2 mps 721 mmHg 50%
    17:00 +30°C° 0 mm 2 mps 721 mmHg 54%
    18:00 +30°C° 0 mm 2 mps 720 mmHg 57%
    19:00 +28°C° 0 mm 2 mps 720 mmHg 60%
    20:00 +27°C° 0 mm 3 mps 721 mmHg 63%
    21:00 +26°C° 0 mm 3 mps 721 mmHg 66%
    22:00 +25°C° 0 mm 4 mps 721 mmHg 68%
    23:00 +25°C° 0 mm 5 mps 722 mmHg 70%

    Tomorrow, 22 November, Thursday

    Time Temperature Precipitation Wind Pressure Humidity
    00:00 +23°C° 0 mm 6 mps 722 mmHg 72%
    01:00 +22°C° 0 mm 5 mps 722 mmHg 75%
    02:00 +22°C° 0 mm 5 mps 721 mmHg 77%
    03:00 +21°C° 0 mm 5 mps 721 mmHg 79%
    04:00 +21°C° 0 mm 5 mps 721 mmHg 81%
    05:00 +20°C° 0 mm 4 mps 721 mmHg 83%
    06:00 +20°C° 0 mm 4 mps 721 mmHg 84%
    07:00 +22°C° 0 mm 4 mps 722 mmHg 81%
    08:00 +23°C° 0 mm 5 mps 722 mmHg 77%
    09:00 +26°C° 0 mm 5 mps 722 mmHg 74%
    10:00 +28°C° 0 mm 5 mps 722 mmHg 70%
    11:00 +29°C° 0 mm 4 mps 722 mmHg 67%
    12:00 +30°C° 0 mm 4 mps 722 mmHg 64%
    13:00 +32°C° 0.1 mm 4 mps 721 mmHg 62%
    14:00 +33°C° 0.1 mm 3 mps 721 mmHg 60%
    15:00 +33°C° 0.1 mm 3 mps 720 mmHg 58%
    16:00 +31°C° 0.5 mm 3 mps 720 mmHg 62%
    17:00 +31°C° 0.5 mm 3 mps 719 mmHg 66%
    18:00 +30°C° 0.5 mm 3 mps 719 mmHg 70%
    19:00 +29°C° 0.1 mm 3 mps 719 mmHg 74%
    20:00 +27°C° 0.1 mm 3 mps 720 mmHg 79%
    21:00 +26°C° 0.1 mm 3 mps 720 mmHg 83%
    22:00 +25°C° 0.1 mm 3 mps 720 mmHg 84%
    23:00 +25°C° 0.1 mm 3 mps 720 mmHg 84%

    Day after tomorrow, 23 November, Friday

    Time Temperature Precipitation Wind Pressure Humidity
    00:00 +25°C° 0.1 mm 3 mps 720 mmHg 85%
    01:00 +24°C° 0.2 mm 3 mps 720 mmHg 86%
    02:00 +24°C° 0.2 mm 3 mps 719 mmHg 87%
    03:00 +24°C° 0.2 mm 3 mps 719 mmHg 88%
    04:00 +24°C° 0 mm 3 mps 719 mmHg 89%
    05:00 +22°C° 0 mm 3 mps 719 mmHg 90%
    06:00 +22°C° 0 mm 3 mps 720 mmHg 91%
    07:00 +25°C° 0 mm 4 mps 720 mmHg 85%
    08:00 +27°C° 0 mm 4 mps 720 mmHg 79%
    09:00 +28°C° 0 mm 4 mps 721 mmHg 73%
    10:00 +29°C° 0.9 mm 4 mps 721 mmHg 70%
    11:00 +30°C° 0.9 mm 4 mps 720 mmHg 66%
    12:00 +32°C° 0.9 mm 4 mps 720 mmHg 62%
    13:00 +33°C° 0.2 mm 4 mps 720 mmHg 62%
    14:00 +33°C° 0.2 mm 4 mps 719 mmHg 61%
    15:00 +33°C° 0.2 mm 4 mps 718 mmHg 61%
    16:00 +30°C° 2.5 mm 3 mps 718 mmHg 68%
    17:00 +29°C° 2.5 mm 3 mps 718 mmHg 76%
    18:00 +27°C° 2.5 mm 2 mps 718 mmHg 83%
    19:00 +27°C° 2.2 mm 2 mps 718 mmHg 85%
    20:00 +26°C° 2.2 mm 2 mps 718 mmHg 86%
    21:00 +25°C° 2.2 mm 2 mps 719 mmHg 88%
    22:00 +25°C° 1.3 mm 2 mps 719 mmHg 89%
    23:00 +25°C° 1.3 mm 3 mps 719 mmHg 91%

    24 November, Saturday

    Time Temperature Precipitation Wind Pressure Humidity
    00:00 +24°C° 1.3 mm 3 mps 719 mmHg 92%
    01:00 +24°C° 0.1 mm 3 mps 718 mmHg 92%
    02:00 +23°C° 0.1 mm 4 mps 717 mmHg 92%
    03:00 +23°C° 0.1 mm 4 mps 717 mmHg 92%
    04:00 +23°C° 2.7 mm 5 mps 717 mmHg 92%
    05:00 +23°C° 2.7 mm 5 mps 717 mmHg 92%
    06:00 +23°C° 2.7 mm 5 mps 717 mmHg 92%
    07:00 +24°C° 2 mm 6 mps 717 mmHg 89%
    08:00 +26°C° 2 mm 6 mps 718 mmHg 86%
    09:00 +27°C° 2 mm 7 mps 718 mmHg 83%
    10:00 +27°C° 2.1 mm 6 mps 718 mmHg 81%
    11:00 +28°C° 2.1 mm 6 mps 718 mmHg 79%
    12:00 +29°C° 2.1 mm 6 mps 718 mmHg 76%
    13:00 +29°C° 1.7 mm 6 mps 717 mmHg 77%
    14:00 +29°C° 1.7 mm 5 mps 717 mmHg 77%
    15:00 +29°C° 1.7 mm 5 mps 716 mmHg 78%
    16:00 +28°C° 0.9 mm 4 mps 716 mmHg 80%
    17:00 +28°C° 0.9 mm 3 mps 716 mmHg 82%
    18:00 +28°C° 0.9 mm 2 mps 716 mmHg 85%
    19:00 +27°C° 0.2 mm 2 mps 716 mmHg 87%
    20:00 +26°C° 0.2 mm 2 mps 717 mmHg 89%
    21:00 +25°C° 0.2 mm 1 mps 717 mmHg 91%
    22:00 +25°C° 0.1 mm 1 mps 717 mmHg 91%
    23:00 +24°C° 0.1 mm 1 mps 718 mmHg 91%

    25 November, Sunday

    Time Temperature Precipitation Wind Pressure Humidity
    00:00 +24°C° 0.1 mm 2 mps 718 mmHg 91%
    01:00 +24°C° 0 mm 2 mps 718 mmHg 92%
    02:00 +23°C° 0 mm 2 mps 717 mmHg 92%
    03:00 +23°C° 0 mm 2 mps 717 mmHg 92%
    04:00 +23°C° 0 mm 2 mps 717 mmHg 93%
    05:00 +23°C° 0 mm 2 mps 717 mmHg 94%
    06:00 +21°C° 0 mm 2 mps 718 mmHg 95%
    07:00 +24°C° 0 mm 2 mps 718 mmHg 89%
    08:00 +25°C° 0 mm 2 mps 719 mmHg 82%
    09:00 +27°C° 0 mm 2 mps 720 mmHg 75%
    10:00 +28°C° 0 mm 2 mps 719 mmHg 70%
    11:00 +30°C° 0 mm 3 mps 719 mmHg 65%
    12:00 +31°C° 0 mm 3 mps 719 mmHg 59%
    13:00 +31°C° 0 mm 3 mps 719 mmHg 58%
    14:00 +31°C° 0 mm 3 mps 718 mmHg 57%
    15:00 +33°C° 0 mm 4 mps 717 mmHg 55%
    16:00 +31°C° 0 mm 3 mps 717 mmHg 59%
    17:00 +31°C° 0 mm 3 mps 717 mmHg 63%
    18:00 +30°C° 0 mm 3 mps 717 mmHg 66%
    19:00 +28°C° 0 mm 2 mps 717 mmHg 68%
    20:00 +27°C° 0 mm 2 mps 718 mmHg 70%
    21:00 +26°C° 0 mm 2 mps 718 mmHg 72%
    22:00 +25°C° 0 mm 2 mps 718 mmHg 73%
    23:00 +24°C° 0 mm 2 mps 718 mmHg 74%

    26 November, Monday

    Time Temperature Precipitation Wind Pressure Humidity
    00:00 +23°C° 0 mm 2 mps 718 mmHg 76%
    01:00 +23°C° 0 mm 2 mps 718 mmHg 76%
    02:00 +23°C° 0 mm 2 mps 718 mmHg 77%
    03:00 +21°C° 0 mm 2 mps 718 mmHg 78%
    04:00 +21°C° 0 mm 3 mps 718 mmHg 81%
    05:00 +21°C° 0 mm 3 mps 718 mmHg 84%
    06:00 +21°C° 0 mm 3 mps 719 mmHg 87%
    07:00 +22°C° 0 mm 4 mps 719 mmHg 83%
    08:00 +25°C° 0 mm 4 mps 720 mmHg 79%
    09:00 +27°C° 0 mm 4 mps 720 mmHg 75%
    10:00 +28°C° 0 mm 4 mps 720 mmHg 70%
    11:00 +30°C° 0 mm 3 mps 720 mmHg 64%
    12:00 +33°C° 0 mm 3 mps 720 mmHg 58%
    13:00 +32°C° 0 mm 2 mps 720 mmHg 56%
    14:00 +32°C° 0 mm 2 mps 719 mmHg 53%
    15:00 +33°C° 0 mm 1 mps 718 mmHg 51%
    16:00 +32°C° 0 mm 1 mps 718 mmHg 55%
    17:00 +31°C° 0 mm 1 mps 718 mmHg 58%
    18:00 +31°C° 0 mm 1 mps 718 mmHg 62%
    19:00 +29°C° 0 mm 2 mps 718 mmHg 65%
    20:00 +28°C° 0 mm 3 mps 719 mmHg 68%
    21:00 +27°C° 0 mm 4 mps 719 mmHg 71%
    22:00 +26°C° 0 mm 5 mps 720 mmHg 73%
    23:00 +24°C° 0 mm 6 mps 720 mmHg 75%
    Show more